Hourly Data Report for May 23, 2003

TORONTO CITY
ONTARIO

43°40'00.000" N
79°24'00.000" W
112.50 m
6158355
71508
XTO

Download Data

Hourly Data (May 2003)
Hourly Data Report for May 23, 2003
TIME
LST
Temp Definition
°C
Dew Point Definition
°C
Rel Hum Definition
%
Precip. Amount Definition
mm

Wind Dir Definition
10's deg

Wind Spd Definition
km/h
Visibility Definition
km
Stn Press Definition
kPa
Hmdx Definition


Wind Chill Definition


Weather Definition


00:00 11.4 2.2 53   LegendMM LegendMM LegendMM 100.90     LegendNANA
01:00 11.5 2.5 54   LegendMM LegendMM LegendMM 100.87     LegendNANA
02:00 11.9 2.1 51   LegendMM LegendMM LegendMM 100.85     LegendNANA
03:00 11.3 2.1 53   LegendMM LegendMM LegendMM 100.83     LegendNANA
04:00 12.0 1.6 49   LegendMM LegendMM LegendMM 100.82     LegendNANA
05:00 11.9 3.2 55   LegendMM LegendMM LegendMM 100.81     LegendNANA
06:00 12.2 3.4 55   LegendMM LegendMM LegendMM 100.80     LegendNANA
07:00 11.7 4.2 60   LegendMM LegendMM LegendMM 100.79     LegendNANA
08:00
09:00 13.2 6.8 65   LegendMM LegendMM LegendMM 100.80     LegendNANA
10:00 15.1 7.7 61   LegendMM LegendMM LegendMM 100.75     LegendNANA
11:00 15.0 8.9 67   LegendMM LegendMM LegendMM 100.74     LegendNANA
12:00 14.9 9.1 68   LegendMM LegendMM LegendMM 100.73     LegendNANA
13:00 14.8 9.4 70   LegendMM LegendMM LegendMM 100.67     LegendNANA
14:00 14.6 9.2 70   LegendMM LegendMM LegendMM 100.60     LegendNANA
15:00 15.7 9.2 65   LegendMM LegendMM LegendMM 100.54     LegendNANA
16:00 15.5 8.7 64   LegendMM LegendMM LegendMM 100.47     LegendNANA
17:00 14.6 8.6 67   LegendMM LegendMM LegendMM 100.45     LegendNANA
18:00 13.2 8.5 73   LegendMM LegendMM LegendMM 100.41     LegendNANA
19:00 12.7 9.7 82   LegendMM LegendMM LegendMM 100.34     LegendNANA
20:00 11.8 9.4 85   LegendMM LegendMM LegendMM 100.28     LegendNANA
21:00 11.8 9.7 87   LegendMM LegendMM LegendMM 100.30     LegendNANA
22:00 10.7 9.5 92   LegendMM LegendMM LegendMM 100.23     LegendNANA
23:00 11.7 11.1 96   LegendMM LegendMM LegendMM 100.15     LegendNANA

Notes on Data Quality.

Legend

  • E = Estimated
  • M = Missing
  • NA = Not Available*
  • [empty] = Indicates an unobserved value
Date modified: